Погода в Рославле

Хотите узнать прогноз погоды в Рославле? Тогда Вам сюда: Погода в Рославле

Поиск расширенной информации на нашем сайте:

Полезная информация:

Новости сайта



14.11.2019
Обновлён Долгосрочный прогноз погоды по России и другим странам хСССР на ноябрь-декабрь 2019 года.
Опубликованы прогностические карты: Предварительный прогноз на декабрь 2019 года, Предварительный прогноз на январь 2020 года, Предварительная схема синоптических процессов на декабрь 2019 г..

11.11.2019
Обновлены Долгосрочный прогноз погоды по России и другим странам хСССР на ноябрь-декабрь 2019 года и Предварительный прогноз на зиму 2019/2020 годов

04.11.2019
Опубликован Долгосрочный прогноз погоды по России и другим странам хСССР на ноябрь 2019 года
Сравнение прогнозируемой аномалии приземной температуры воздуха на ноябрь 2019 года по разным моделям
Предварительный прогноз на зиму 2019/2020 года




Погода в Рославле - сегодня

Время (UTC), дата Ветер
(°,м/с) 
Видим.   Явления Облачность Т
(°С)
Тd
(°С)
f(%) Тe
(°С)
Pmin
(гПа)
dP
(гПа)
Po
(мм)
O2
(г/м3)
Тmin Tmax R s Состояние
почвы
00 20.11.19 120 (ЮВ) 4000 м  слаб. морось  10/10 210 м 
[St]
+0.3 -0.1 97 -1  1033.1  0.5  753  303           
03 20.11.19 110 (В) 4000 м  дымка{морось}  10/10 330 м 
[St]
-0.3 -0.7 97 -2  1033.9  0.8  754  304  -0.3    0.2     
06 20.11.19 120 (ЮВ) 3-10{10}  20000 м  {морось}  9/6 300 м средняя 
[Sc|Ac trans]
-0.5 -1.9 90 -2  1034.8  0.9  755  305  -0.6    0.3     
09 20.11.19 120 (ЮВ) 3{10}  20000 м    10/5 300 м средняя 
[Cu Sc|Ac As]
+0.8 -1.1 87 -1  1036.1  1.4  756  304           
12 20.11.19 110 (В) 10 км    10/5 300 м средняя 
[Sc|Ac As]
+1.8 +0.7 92 1036.5  0.4  756  303           
15 20.11.19 100 (В) 4000 м  дымка  10/10 270 м 
[St]
+2.6 +1.8 94 +2  1037.2  0.8  757  302           
18 20.11.19 120 (ЮВ) 20000 м  {морось}  10/10 420 м 
[Sc]
+4 +2.6 91 +2  1038.1  0.8  757  300    +4  0.0     
21 20.11.19 120 (ЮВ) 20000 м    10/10 450 м 
[Sc]
+3.6 +1.5 86 +2  1039.4  1.2  758  301           
00 21.11.19 110 (В) 20000 м    9/5 300 м средняя 
[Sc|Ac trans]
+2.2 +0 85 1040.8  1.2  759  303           
03 21.11.19 120 (ЮВ) 5-10{10}  20000 м    5/0 средняя, верхняя 
[Ac trans|Ci fib]
+0.9 -1.6 83 -2  1041.6  0.7  760  305  +0.6    0.0     
06 21.11.19 130 (ЮВ) 5{11}  20000 м    10/0 средняя 
[Ac und]
-0.7 -3.5 81 -4  1042.7  0.9  760  308  -0.7         
09 21.11.19 140 (ЮВ) 5{12}  20000 м    10/0 средняя 
[Ac und]
-3.4 -6.6 78 -7  1044.4  1.3  761  311           
12 21.11.19 130 (ЮВ) 5-10{11}  20000 м    9/9 600 м 
[Sc]
-4.8 -8.8 74 -9  1044.1  -0.4  761  313           
15 21.11.19 130 (ЮВ) 4{11}  20000 м    3/3 600 м 
[Sc diur, vesp]
-5.8 -9.2 77 -9  1044.2  761  314           
18 21.11.19 130 (ЮВ) 20000 м    ясно 
-7.1 -10 80 -11  1044.5  0.1  761  316    -0.8       
21 21.11.19 130 (ЮВ) 20000 м    ясно 
-8.3 -11.2 80 -12  1044.8  0.2  761  317           
00 22.11.19 130 (ЮВ) 20000 м    ясно 
-9.3 -12.4 78 -12  1044.8  0.1  761  319           
03 22.11.19 130 (ЮВ) 20000 м    ясно 
-10.3 -12.9 81 -13  1044.6  -0.3  761  320  -10.3         
06 22.11.19 120 (ЮВ) 20000 м    9/0 средняя, верхняя 
[Ac lent|Ci fib]
-10.4 -13.2 80 -14  1045.5  0.8  762  320  -10.5         
09 22.11.19 130 (ЮВ) 20000 м    9/0 верхняя 
[Ci fib]
-6.3 -12.9 59 -10  1044.7  -0.3  761  315           
12 22.11.19 130 (ЮВ) 20000 м    8/0 верхняя 
[Ci fib]
-3.4 -13.2 47 -6  1042.6  -1.7  760  311           
15 22.11.19 120 (ЮВ) 20000 м    8/0 средняя, верхняя 
[Ac lent|Ci fib]
-6.2 -13.2 58 -10  1042.1  -0.8  760  314           
18 22.11.19 120 (ЮВ) 20000 м    ясно 
-8 -12.8 68 -11  1042.1  -0.3  759  316    -3.4       
21 22.11.19 120 (ЮВ) 20000 м    ясно 
-8.9 -12.4 76 -12  1041.9  -0.2  759  317           
00 23.11.19 120 (ЮВ) 20000 м    ясно 
-9.8 -12.6 80 -13  1041.4  -0.6  759  318           
Время (UTC), дата Ветер
(°,м/с) 
Видим.   Явления Облачность Т
(°С)
Тd
(°С)
f(%) Тe
(°С)
Pmin
(гПа)
dP
(гПа)
Po
(мм)
O2
(г/м3)
Тmin Tmax R s Состояние
почвы

Для получения пояснительной информации подведите курсор к названию столбца.

ПОГОДА в Рославле - архив

Всё, что Вы хотите узнать о погоде в Рославле - удобно и подробно!

Выберите нужную дату (начиная с 1 января 2019* года) и нажмите кнопку "Найти".
Будут отображены архивные сводки погоды по пункту Рославль, начиная с указанной даты.


Отображать данные в формате CSV (для использования в таблицах Excel)


Внимание! Наш архив погоды предназначен исключительно для личного некоммерческого использования в познавательных целях. Если Вам необходимы официальные справки о состоянии погоды (для производственных, юридических, коммерческих и т.п. целей), обращайтесь в органы Росгидромета.

*Примечание: данная дата относится к архиву по метеостанциям СССР (Россия, СНГ, Балтия).
Архив по метеостанциям Зарубежной Европы и Азии (кроме Китая) хранится 10 дней, по другим регионам земного шара (Китай, Африка, Америка, Австралия, Океания) - 1 день.

Рославль - район местоположения метеостанции


Название, широта, долгота, высота метеостанции:
Рославль 53.9°ш. 32.8°д. 224 м над ур. моря [Российская Федерация]

Дополнительная информация

В oтличие oт бoльшинства пoгoдных сайтoв мы публикуем пoдрoбную метеoинфoрмацию в детальнoм прoфессиoнальнoм фoрмате.

Характеристики температуры и влажнoсти вoздуха измеряются на высoте 2 м в тени вдали oт зданий и деревьев.
Скoрoсть ветра измеряется на высoте 10 м (на урoвне рoста челoвека скoрoсть ветра ниже в 1.5-2 раза). Если метеoстанция нахoдится в гoрoде или в лесу, тo скoрoсть ветра занижена на 2-4 м/с пo сравнению с oткрытым местoм. Скoрoсть ветра над акватoриями крупных рек и oзёр, а также на вершинах хoлмoв на 2-5 м/с выше, чем в oбычных услoвиях.
Атмoсфернoе давление в разных тoчках местнoсти мoжет значительнo oтличаться oт давления на метеoстанции, в зависимoсти oт услoвий рельефа (при пoдъёме на 10 м давление пoнижается примернo на 1 мм рт.ст.).